Regional Weather Roundup
Issued by NWS Sterling, VA

Home | Current Version | Previous Version | Graphics & Text | Print | Product List | Glossary On
Versions: 1 2 3 4 5 6 7 8 9 10 11 12 13 14 15 16 17 18 19 20 21 22 23 24 25 26 27 28 29 30 31 32 33 34 35 36 37 38 39 40 41 42 43 44 45 46 47 48 49 50
000
ASUS41 KLWX 221010
RWRLWX

REGIONAL WEATHER ROUNDUP
NATIONAL WEATHER SERVICE BALTIMORE MD/WASHINGTON DC
600 AM EDT TUE JUL 22 2014

Note: "FAIR" indicates few or no clouds below 12,000 feet
with no significant weather and/or obstructions to visibility.
 TC=TEMPERATURE CELSIUS

 * =Non NWS site. Station does not report precipitation (e.g. rain,
    snow, etc.), thunder, or fog.

DCZ001-MDZ009-015-VAZ040>042-051-053>054-221100-
WASHINGTON METRO
  /KDAA//-FT BELVOIR

CITY           SKY/WX    TMP DP  RH WIND       PRES   REMARKS
WASHINGTON NAT MOCLDY    74  68  81 SE6       30.17S
DULLES         CLOUDY    71  69  93 S5        30.17R
ANDREWS AFB    PTCLDY    68  68  99 S2        30.17R
QUANTICO       CLOUDY    73  69  87 W5        30.17S
COLLEGE PARK*  MOCLDY    70  70 100 CALM      30.17R
LEESBURG*      MOCLDY    72  72 100 CALM      30.18S
MANASSAS*      MOCLDY    72  72 100 SE3       30.16S
GAITHERSBURG*  CLOUDY    70  66  88 CALM      30.21S

$$

MDZ006>007-011-014-221100-
BALTIMORE METRO

CITY           SKY/WX    TMP DP  RH WIND       PRES   REMARKS
BWI AIRPORT    CLOUDY    70  68  93 CALM      30.17R
MD SCIENCE CTR   N/A     73  69  87 MISG      30.18R
MARTIN STATE   MOCLDY    73  72  94 SW3       30.19R
ANNAPOLIS      MOCLDY    72  69  90 CALM      30.17R
FORT MEADE*    MOCLDY    64  63  94 CALM      30.19S

$$

MDZ012-015-019>023-221100-
MARYLAND EASTERN SHORE

CITY           SKY/WX    TMP DP  RH WIND       PRES   REMARKS
OCEAN CITY     CLEAR     62  61  96 CALM      30.17S
SALISBURY      NOT AVBL
BAY BRIDGE AP*   N/A     72  70  94 CALM      30.18R
CAMBRIDGE*     CLEAR     66  63  88 CALM      30.17R
EASTON*        CLEAR     70  70 100 CALM      30.21R

$$

MDZ017>025-221100-
SOUTHERN MARYLAND

CITY           SKY/WX    TMP DP  RH WIND       PRES   REMARKS
PATUXENT RIVER PTCLDY    67  66  97 CALM      30.16S
ST INIGOES     CLEAR     68  64  87 CALM      30.15S
LEONARDTOWN*     N/A     66  64  94 MISG        N/A

$$

MDZ003>005-221100-
NORTH CENTRAL MARYLAND

CITY           SKY/WX    TMP DP  RH WIND       PRES   REMARKS
FREDERICK*     CLOUDY    70  70 100 CALM      30.20R
HAGERSTOWN APT CLOUDY    70  68  93 E5        30.17S
WESTMINSTER*   CLOUDY    70  70 100 SE3       30.19S

$$

MDZ501>502-221100-
WESTERN MARYLAND

CITY           SKY/WX    TMP DP  RH WIND       PRES   REMARKS
OAKLAND*       CLEAR     63 N/A N/A S6        30.24R
CUMBERLAND*    CLOUDY    72  70  94 CALM      30.20R VSB<1/4

$$

VAZ025>031-221100-
SHENANDOAH VALLEY

CITY           SKY/WX    TMP DP  RH WIND       PRES   REMARKS
WINCHESTER*      N/A     68  66  94 CALM      30.16S FOG
STAUNTON*      CLOUDY    70  68  94 CALM      30.21R FOG

$$

WVZ021-048>050-054>055-221100-
EASTERN WEST VIRGINIA PANHANDLE

CITY           SKY/WX    TMP DP  RH WIND       PRES   REMARKS
MARTINSBURG    FOG       66  63  90 CALM      30.17R VSB 3/4
PETERSBURG*    CLOUDY    66  62  85 NW3       30.17S

$$

VAZ036>039-050-221100-
CENTRAL FOOTHILLS

CITY           SKY/WX    TMP DP  RH WIND       PRES   REMARKS
CHARLOTTESVILL CLOUDY    72  70  93 S3        30.17R FOG
ORANGE*        CLOUDY    72  70  94 CALM      30.18S

$$

VAZ055>057-221100-
NORTH AND CENTRAL PIEDMONT

CITY           SKY/WX    TMP DP  RH WIND       PRES   REMARKS
FREDERICKSBRG* CLOUDY    70  70 100 CALM      30.16S FOG
STAFFORD*      CLOUDY    70  70 100 CALM      30.20S FOG

$$

NCZ024-NYZ072-PAZ021-071-VAZ022-071-221100-
OTHER REGIONAL OBSERVATIONS

CITY           SKY/WX    TMP DP  RH WIND       PRES   REMARKS
NEW YORK CITY  CLEAR     71  60  68 VRB5      30.20R
PHILADELPHIA   PTCLDY    70  63  78 CALM      30.19R
PITTSBURGH     PTCLDY    70  67  90 CALM      30.14S
ROANOKE        CLOUDY    71  69  93 E7        30.19S
RICHMOND       MOCLDY    69  68  96 CALM      30.16R FOG
RALEIGH        CLOUDY    72  69  90 E6        30.14S FOG

$$

ANZ530>537-221100-
MARINE OBSERVATIONS

STATION/POSITION TIME  TEMP    WIND        PRES
                       AIR SEA DIR/SP/G
                 (UTC) (F)     (DEG/KT/KT) (MB)
THOMAS PT LIGHT  1000   74 79  240/  5/  6 1022.2R
BALT KEY BRIDGE  1000   73     220/  3/  4 1021.5S
COVE POINT       1000   74     260/  2/  3 1021.2F
LEWISETTA        1000   72 79  180/  2/  3 1021.0F
SOLOMONS ISLAND  1000      81                N/A
PINEY POINT      1000          160/  2/  3   N/A

$$




USA.gov is the U.S. government's official web portal to all federal, state and local government web resources and services.